GW6881 Weather Reports


time (UTC)temp
C
wind
direction
speed
KPH
gust
KPH
rain 1hr
cm
rain 24hr
cm
rain mn
cm
humidity
%
barometer
mb
20260507161016 22 203 1.6 4.8 0.00 0.00 0.00 41 1010.8
20260507160036 22 0.0 3.2 0.00 0.00 0.00 41 1010.7
20260507155015 22 90 1.6 4.8 0.00 0.00 0.00 40 1010.8
20260507154116 22 0.0 1.6 0.00 0.00 0.00 42 1010.8
20260507153016 22 0.0 3.2 0.00 0.00 0.00 43 1010.8
20260507152036 22 90 1.6 4.8 0.00 0.00 0.00 43 1010.9
20260507151016 22 270 1.6 6.4 0.00 0.00 0.00 43 1010.9
20260507150016 22 225 1.6 3.2 0.00 0.00 0.00 45 1011.0
20260507145016 21 90 1.6 4.8 0.00 0.00 0.00 44 1011.0
20260507144016 22 0.0 3.2 0.00 0.00 0.00 44 1011.0
20260507143016 22 248 1.6 6.4 0.00 0.00 0.00 45 1011.1
20260507142016 21 90 1.6 6.4 0.00 0.00 0.00 45 1011.3
20260507141056 21 0.0 3.2 0.00 0.00 0.00 47 1011.2
20260507140016 21 203 1.6 6.4 0.00 0.00 0.00 48 1011.2
20260507135015 21 0.0 1.6 0.00 0.00 0.00 45 1011.3
20260507134015 21 225 1.6 3.2 0.00 0.00 0.00 44 1011.3
20260507133015 22 225 3.2 6.4 0.00 0.00 0.00 44 1011.3
20260507132016 22 0.0 4.8 0.00 0.00 0.00 47 1011.3
20260507131016 22 248 1.6 4.8 0.00 0.00 0.00 46 1011.4
20260507130016 22 248 1.6 9.7 0.00 0.00 0.00 45 1011.6
20260507125036 22 0.0 3.2 0.00 0.00 0.00 48 1011.6
20260507124016 21 248 1.6 8.0 0.00 0.00 0.00 46 1011.7
20260507123016 21 225 1.6 9.7 0.00 0.00 0.00 48 1011.7
20260507122016 21 225 1.6 4.8 0.00 0.00 0.00 49 1011.8
20260507121016 21 225 1.6 8.0 0.00 0.00 0.00 48 1011.8
20260507120016 21 203 1.6 6.4 0.00 0.00 0.00 49 1011.8
20260507115016 21 225 1.6 8.0 0.00 0.00 0.00 49 1011.9
20260507114016 20 225 3.2 6.4 0.00 0.00 0.00 52 1012.0
20260507113016 20 225 3.2 8.0 0.00 0.00 0.00 52 1012.2
20260507112016 20 0.0 1.6 0.00 0.00 0.00 56 1012.1
20260507111016 19 203 1.6 8.0 0.00 0.00 0.00 54 1012.3
20260507110016 19 248 1.6 4.8 0.00 0.00 0.00 57 1012.3
20260507105016 18 203 1.6 4.8 0.00 0.00 0.00 55 1012.2
20260507104036 19 0.0 3.2 0.00 0.00 0.00 57 1012.3
20260507103016 19 315 1.6 4.8 0.00 0.00 0.00 58 1012.3
20260507102016 18 225 1.6 4.8 0.00 0.00 0.00 58 1012.5
20260507101016 17 0.0 4.8 0.00 0.00 0.00 62 1012.4
20260507100016 17 225 3.2 8.0 0.00 0.00 0.00 60 1012.3
20260507095016 17 225 1.6 4.8 0.00 0.00 0.00 62 1012.3
20260507094016 17 203 1.6 4.8 0.00 0.00 0.00 64 1012.3
20260507093016 17 248 1.6 3.2 0.00 0.00 0.00 64 1012.3
20260507092036 17 225 1.6 8.0 0.00 0.00 0.00 63 1012.1
20260507091016 17 248 3.2 6.4 0.00 0.00 0.00 63 1012.2
20260507090036 17 248 3.2 14.5 0.00 0.00 0.00 63 1012.1
20260507085016 17 225 3.2 8.0 0.00 0.00 0.00 62 1012.1
20260507084016 17 270 1.6 6.4 0.00 0.00 0.00 61 1011.9
20260507083016 17 338 1.6 6.4 0.00 0.00 0.00 60 1011.6
20260507082016 17 293 1.6 6.4 0.00 0.00 0.00 59 1011.5
20260507081156 17 270 1.6 4.8 0.00 0.00 0.00 60 1011.4
20260507080016 17 293 1.6 4.8 0.00 0.00 0.00 61 1011.3
20260507075016 17 315 1.6 6.4 0.00 0.00 0.00 62 1011.3
20260507074016 17 225 1.6 6.4 0.00 0.00 0.00 62 1011.3
20260507072016 17 248 1.6 8.0 0.00 0.00 0.00 63 1011.0
20260507071016 17 248 3.2 9.7 0.00 0.00 0.00 65 1010.9
20260507070016 17 248 1.6 8.0 0.00 0.00 0.00 62 1011.0
20260507065016 17 338 1.6 8.0 0.00 0.00 0.00 62 1010.9
20260507064036 17 225 1.6 8.0 0.00 0.00 0.00 66 1010.8
20260507063016 16 248 1.6 9.7 0.00 0.00 0.00 67 1010.8
20260507062056 16 225 1.6 6.4 0.00 0.00 0.00 68 1010.7
20260507061016 16 248 3.2 9.7 0.00 0.00 0.00 68 1010.6
20260507060016 15 248 1.6 6.4 0.00 0.00 0.00 72 1010.5
20260507055016 15 248 1.6 4.8 0.00 0.00 0.00 73 1010.5
20260507054016 15 248 1.6 4.8 0.00 0.00 0.00 74 1010.3
20260507053036 14 0.0 1.6 0.00 0.00 0.00 75 1010.1
20260507052016 14 225 1.6 4.8 0.00 0.00 0.00 75 1009.9
20260507051036 14 0.0 3.2 0.00 0.00 0.00 76 1009.7
20260507050016 13 0.0 1.6 0.00 0.00 0.00 75 1009.5
20260507045016 13 0.0 4.8 0.00 0.00 0.00 75 1009.5
20260507044016 13 248 1.6 6.4 0.00 0.00 0.00 75 1009.5
20260507043016 13 225 1.6 6.4 0.00 0.00 0.00 75 1009.6
20260507042116 13 225 3.2 8.0 0.00 0.00 0.00 75 1009.3
20260507041016 13 225 1.6 4.8 0.00 0.00 0.00 77 1009.2
20260507040016 13 225 1.6 4.8 0.00 0.00 0.00 77 1009.0
20260507035016 13 225 1.6 4.8 0.00 0.00 0.00 78 1009.0
20260507034016 13 225 1.6 4.8 0.00 0.00 0.00 78 1009.0
20260507033016 13 0.0 1.6 0.00 0.00 0.00 78 1008.9
20260507032016 13 0.0 3.2 0.00 0.00 0.00 78 1008.8
20260507031016 13 0.0 4.8 0.00 0.00 0.00 78 1008.8
20260507030056 13 248 1.6 4.8 0.00 0.00 0.00 78 1008.7
20260507025016 13 225 1.6 8.0 0.00 0.00 0.00 78 1008.7
20260507024036 13 0.0 4.8 0.00 0.00 0.00 79 1008.7
20260507023036 13 0.0 3.2 0.00 0.00 0.00 79 1008.7
20260507022016 13 0.0 3.2 0.00 0.00 0.00 79 1008.4
20260507021016 14 0.0 1.6 0.00 0.00 0.00 79 1008.3
20260507020016 14 0.0 3.2 0.00 0.00 0.00 79 1008.3
20260507015036 14 225 1.6 6.4 0.00 0.00 0.00 79 1008.2
20260507014036 14 225 1.6 8.0 0.00 0.00 0.00 79 1008.2
20260507013056 14 248 3.2 9.7 0.00 0.00 0.00 79 1008.1
20260507012016 13 225 1.6 6.4 0.00 0.00 0.00 80 1008.0
20260507011016 13 225 1.6 6.4 0.00 0.00 0.00 80 1008.0
20260507010016 13 0.0 1.6 0.00 0.00 0.00 78 1007.8
20260507005016 13 0.0 1.6 0.00 0.00 0.00 77 1007.7
20260507004016 14 248 3.2 11.3 0.00 0.00 0.00 76 1007.7
20260507003016 13 225 3.2 12.9 0.00 0.00 0.00 79 1007.5
20260507002016 13 225 1.6 6.4 0.00 0.00 0.00 79 1007.5
20260507001016 13 225 1.6 8.0 0.00 0.00 0.00 78 1007.4
20260507000016 14 225 1.6 6.4 0.00 0.00 0.00 78 1007.2
20260506235016 14 0.0 6.4 0.00 0.00 0.00 77 1007.0
20260506234036 15 203 1.6 6.4 0.00 0.00 0.00 76 1006.8
20260506233016 15 203 1.6 6.4 0.00 0.00 0.00 75 1006.8
20260506232016 15 225 3.2 9.7 0.00 0.00 0.00 74 1006.7
20260506231016 15 225 3.2 8.0 0.00 0.00 0.00 74 1006.7
20260506230056 16 225 3.2 9.7 0.00 0.00 0.00 73 1006.7
20260506225056 16 225 3.2 9.7 0.00 0.00 0.00 71 1006.5
20260506224016 16 225 3.2 9.7 0.00 0.00 0.00 71 1006.1
20260506223016 16 90 1.6 6.4 0.00 0.00 0.00 70 1005.9
20260506222016 16 113 1.6 9.7 0.00 0.00 0.00 69 1005.7
20260506221016 17 90 1.6 6.4 0.00 0.00 0.00 68 1005.6
20260506220016 17 90 1.6 12.9 0.00 0.00 0.00 68 1005.5
20260506215036 17 90 3.2 9.7 0.00 0.00 0.00 67 1005.4
20260506214016 17 68 1.6 6.4 0.00 0.00 0.00 66 1005.2
20260506213036 17 90 3.2 11.3 0.00 0.00 0.00 66 1005.2
20260506212016 17 68 1.6 11.3 0.00 0.00 0.00 65 1005.1
20260506211016 17 90 3.2 12.9 0.00 0.00 0.00 65 1005.3
20260506210016 18 113 3.2 9.7 0.00 0.00 0.00 64 1005.1
20260506205016 18 135 1.6 14.5 0.00 0.00 0.00 64 1005.1
20260506204036 18 90 3.2 9.7 0.00 0.00 0.00 63 1005.1
20260506203016 18 90 4.8 12.9 0.00 0.00 0.00 62 1005.0
20260506202016 18 90 4.8 20.9 0.00 0.00 0.00 62 1005.0
20260506201016 18 68 3.2 9.7 0.00 0.00 0.00 62 1004.9
20260506200016 18 90 4.8 19.3 0.00 0.00 0.00 61 1004.9
20260506195016 18 90 3.2 11.3 0.00 0.00 0.00 60 1004.6
20260506194016 19 90 4.8 12.9 0.00 0.00 0.00 60 1004.6
20260506193016 19 90 3.2 12.9 0.00 0.00 0.00 59 1004.6
20260506192016 19 90 4.8 9.7 0.00 0.00 0.00 59 1004.5
20260506191036 20 90 6.4 20.9 0.00 0.00 0.00 58 1004.3
20260506190016 20 90 6.4 16.1 0.00 0.00 0.00 58 1004.2
20260506185016 20 113 8.0 19.3 0.00 0.00 0.00 57 1004.2
20260506184016 20 90 4.8 9.7 0.00 0.00 0.00 57 1004.1
20260506183016 20 90 8.0 22.5 0.00 0.00 0.00 56 1004.0
20260506182016 20 90 4.8 12.9 0.00 0.00 0.00 56 1003.9
20260506181016 20 113 4.8 12.9 0.00 0.00 0.00 55 1003.8
20260506180056 20 90 6.4 19.3 0.00 0.00 0.00 55 1003.8
20260506175016 21 113 6.4 16.1 0.00 0.00 0.00 54 1003.9
20260506174016 21 90 4.8 14.5 0.00 0.00 0.00 53 1003.9
20260506173016 21 90 4.8 16.1 0.00 0.00 0.00 51 1003.9
20260506172016 21 90 6.4 14.5 0.00 0.00 0.00 51 1003.8
20260506171036 21 90 4.8 9.7 0.00 0.00 0.00 50 1003.7
20260506170016 22 90 3.2 9.7 0.00 0.00 0.00 50 1003.7
20260506165016 22 90 4.8 11.3 0.00 0.00 0.00 50 1003.8
20260506164016 22 113 3.2 11.3 0.00 0.00 0.00 49 1003.8
20260506163016 22 113 6.4 17.7 0.00 0.00 0.00 49 1003.9
20260506162016 22 113 4.8 17.7 0.00 0.00 0.00 49 1004.0